Wetbulb
65.63 65.19 61.33 57.51 47.86 47.74 44.11 48.91 53.84 56.16 57.07 57.12 58.71 57.30 54.81 55.78 55.45 52.49 63.48 69.21 69.70 69.68 71.19 72.90 73.99 73.56 73.11 72.64 72.22 71.80 71.33 71.03 70.62 70.28 69.43 68.86 68.46 67.46 67.27 67.22 66.87 66.87 66.68 66.65 66.56 66.67 67.11 67.40 67.62
62.50 60.21 56.16 54.14 45.53 42.36 45.26 51.52 53.68 57.11 59.90 60.67 59.25 57.80 55.32 57.53 63.01 63.21 64.66 70.44 70.27 69.54 70.45 71.17 73.87 73.41 73.01 72.74 72.25 71.86 71.51 71.28 71.13 70.62 69.35 68.72 68.72 68.23 67.64 67.43 67.32 67.54 67.86 67.78 67.91 68.08 68.48 68.58 68.98
64.26 62.03 49.89 48.87 47.50 44.57 45.52 52.97 55.66 59.85 62.20 61.38 57.49 58.64 57.92 58.17 64.00 64.31 66.76 71.19 69.95 68.80 69.67 70.06 73.82 73.42 73.07 72.79 72.30 72.01 71.66 71.56 71.41 70.57 69.89 69.12 68.85 68.98 69.35 68.41 68.44 68.87 69.36 69.58 69.67 69.62 69.51 69.36 69.54
58.61 57.09 52.68 47.24 47.12 51.94 52.21 54.72 59.24 59.49 60.94 61.17 60.22 56.85 59.70 64.31 62.86 64.17 70.72 71.49 69.88 69.18 69.05 72.11 73.67 73.44 73.04 72.89 72.42 72.21 72.18 71.88 71.56 71.17 70.39 70.01 69.86 69.91 69.97 69.41 69.39 69.49 69.72 70.30 70.79 70.96 70.64 70.26 70.31
57.55 53.15 44.79 45.60 48.99 53.60 55.07 55.92 59.01 58.57 59.92 60.30 59.81 58.24 57.59 62.05 64.59 65.57 66.12 71.73 70.20 69.47 68.98 72.02 73.64 73.72 73.59 73.24 72.85 72.40 72.40 72.13 72.21 72.05 71.22 71.07 71.41 71.41 70.75 70.06 69.98 70.38 70.68 70.89 70.55 70.89 70.81 70.48 70.42
50.89 51.68 43.87 43.27 48.76 53.49 55.57 56.59 55.49 55.53 55.84 56.40 57.86 57.94 57.42 62.69 63.17 64.08 66.04 64.91 69.98 70.04 69.22 71.21 73.27 73.66 73.49 73.42 73.12 72.70 72.25 72.25 72.38 72.23 72.01 71.91 71.96 71.74 71.17 70.74 70.86 71.16 71.24 70.66 70.46 70.09 70.03 70.56 70.11
48.78 46.05 44.63 46.62 48.74 51.80 54.67 56.76 54.28 53.78 54.39 56.17 58.19 55.77 58.22 61.37 62.99 63.68 63.66 64.73 64.71 70.25 70.30 70.81 71.36 72.35 73.79 73.46 72.94 72.69 72.27 72.20 72.08 72.13 72.00 72.05 72.20 72.03 71.98 72.05 71.74 71.69 71.15 70.40 69.66 68.87 68.61 69.21 69.53
52.65 47.75 44.44 47.18 48.58 50.42 56.64 56.84 54.31 55.83 55.70 60.23 59.84 55.22 54.97 60.90 63.71 63.25 62.13 61.52 62.94 69.23 71.21 70.40 70.53 70.80 70.68 71.53 73.46 72.86 72.57 72.42 72.24 72.20 72.22 72.29 72.15 72.34 72.38 71.87 72.10 71.37 70.53 69.69 68.75 68.16 67.74 67.84 68.99
57.02 43.69 42.22 46.55 48.93 51.62 56.40 55.04 58.24 59.73 57.36 58.55 59.93 59.19 59.88 61.36 60.71 59.24 58.07 59.12 58.98 65.20 70.62 70.44 70.26 70.25 69.96 70.13 71.83 72.88 73.09 72.74 72.58 72.22 72.39 71.46 69.08 69.01 69.34 70.96 71.80 71.19 70.28 69.72 68.64 68.16 67.53 66.92 67.19
55.86 44.68 45.69 50.70 52.77 52.80 54.58 55.27 56.74 57.07 57.47 56.87 58.31 61.72 62.11 62.17 59.67 58.59 57.04 55.92 56.17 58.44 69.49 70.52 70.38 70.13 69.88 70.83 70.43 70.69 70.32 70.09 70.47 70.26 69.67 69.24 67.87 65.41 67.14 69.23 72.44 71.76 71.29 70.70 69.75 68.43 67.45 66.85 63.41
54.35 49.28 51.30 52.08 53.48 54.84 54.72 55.14 57.53 56.43 54.73 57.44 57.54 59.52 61.02 60.79 58.92 58.69 58.05 56.81 56.77 58.21 61.41 70.52 70.53 70.60 70.11 70.16 69.91 70.25 69.76 69.63 69.97 68.42 67.24 68.14 67.93 66.24 67.06 64.81 68.55 66.66 69.51 65.05 66.74 65.16 64.59 63.48 62.98
50.36 53.83 54.39 53.90 54.81 54.48 53.89 56.15 55.45 56.57 56.02 59.28 58.94 59.54 60.15 59.38 58.36 58.20 57.73 58.10 58.05 58.20 59.21 67.66 71.43 71.22 70.62 70.61 69.23 69.78 69.02 69.02 68.76 68.57 66.82 67.91 67.26 65.92 64.85 64.32 64.88 64.07 64.02 63.48 62.72 63.25 63.38 62.90 64.15
50.70 51.52 53.74 55.95 55.66 55.33 56.18 54.79 55.12 55.85 58.67 59.80 59.30 58.64 58.21 58.12 58.71 59.18 59.17 59.29 58.84 57.17 59.09 62.56 68.77 71.26 70.77 69.26 69.48 69.30 68.71 68.43 68.15 67.59 67.53 67.78 66.72 64.37 63.83 63.57 64.03 63.78 63.85 63.30 62.89 64.05 63.89 63.33 63.25
50.44 53.17 52.89 53.95 54.43 55.57 54.32 54.72 55.33 56.37 57.98 57.57 57.70 56.70 57.06 57.86 58.46 58.43 58.86 58.81 58.70 59.01 59.45 62.73 68.18 70.02 70.37 69.48 69.06 69.42 69.36 68.57 67.82 67.87 68.08 68.35 66.23 64.38 64.52 64.99 64.70 63.47 63.07 62.98 62.98 62.28 61.89 61.76 62.18
49.76 47.13 49.97 52.28 53.54 52.33 54.12 51.04 51.94 55.73 57.07 56.45 56.93 57.53 57.92 57.90 58.68 58.28 58.17 58.35 59.68 60.82 60.41 63.41 66.74 68.67 69.40 69.10 68.17 69.10 69.74 68.93 68.05 67.80 68.71 67.84 65.86 64.93 65.36 64.02 63.86 63.37 63.32 63.29 62.89 62.64 62.55 62.01 62.00
46.23 46.01 42.59 48.67 51.29 52.76 52.23 46.49 53.01 55.73 55.91 55.47 56.82 57.53 57.69 56.89 57.98 58.79 58.85 57.99 61.29 60.48 61.53 63.56 69.92 69.02 69.18 68.49 68.75 69.55 69.33 67.95 67.43 66.49 67.67 67.22 65.99 65.87 65.45 63.90 63.52 63.94 64.29 62.98 62.44 62.08 61.55 61.72 61.39
44.15 39.39 41.90 45.44 51.28 51.11 50.54 48.06 53.58 55.98 55.35 54.91 55.87 56.64 57.07 57.19 57.03 57.70 59.44 59.13 58.90 59.26 61.32 63.90 67.27 69.21 69.38 69.33 68.59 69.01 68.50 66.35 65.48 65.20 65.27 67.31 67.06 67.33 65.09 64.30 63.79 64.45 63.90 63.38 62.64 61.96 61.35 60.17 60.47
39.21 40.88 43.31 43.16 48.41 50.27 48.78 48.70 52.33 54.35 54.33 54.29 55.29 55.78 55.67 56.61 56.24 57.57 58.22 59.84 58.90 59.37 62.43 64.21 65.93 68.94 69.33 69.92 68.95 68.44 67.06 65.32 65.47 64.43 65.03 66.01 66.72 67.04 65.21 64.54 63.94 63.88 63.08 62.67 61.65 61.18 61.22 60.41 60.31
43.97 44.06 43.14 46.02 49.48 48.34 47.52 48.05 50.48 52.97 52.64 52.58 53.64 53.23 54.72 55.22 57.00 57.46 60.34 59.87 58.66 63.28 65.30 66.40 67.43 69.19 70.12 69.23 68.23 66.39 64.61 63.89 64.35 65.14 65.02 66.15 66.03 66.28 65.16 63.90 63.34 63.58 63.00 62.54 61.67 60.89 60.25 59.82 59.95
42.18 40.20 40.54 45.28 49.03 47.59 47.34 47.21 50.56 52.43 52.36 53.20 53.80 54.06 53.77 54.16 55.24 57.26 57.69 58.73 61.67 61.92 65.45 66.62 69.20 69.46 69.24 69.30 67.43 66.35 63.88 63.75 64.33 63.38 64.31 64.86 65.56 64.96 63.62 63.61 62.79 62.49 61.79 61.51 61.29 61.16 59.82 59.14 59.39
40.49 39.43 40.21 40.52 44.71 46.51 45.21 43.40 46.30 49.90 51.68 52.98 53.54 53.57 54.36 54.62 54.56 55.87 56.50 59.94 62.16 63.57 64.87 66.48 67.70 68.60 68.49 68.25 67.38 65.02 63.37 62.50 61.94 62.13 63.14 64.04 64.69 64.91 63.76 63.40 62.18 62.38 61.49 60.93 59.19 59.62 58.78 57.03 57.97
37.87 43.79 43.35 42.66 41.15 36.55 44.26 35.96 43.92 47.01 48.91 51.39 52.74 52.44 52.74 53.25 54.87 55.11 55.34 60.88 62.39 63.56 64.74 65.42 67.72 67.88 68.07 66.73 64.82 62.88 60.64 60.18 60.90 61.20 62.15 63.09 64.48 65.72 64.60 63.16 62.51 61.64 61.41 60.55 60.39 61.12 59.11 58.15 56.41
40.17 45.35 43.44 43.37 40.74 39.81 41.19 37.48 42.35 46.23 46.45 47.80 50.26 51.55 52.48 53.74 54.77 54.79 55.55 62.32 63.09 63.96 64.19 66.32 67.06 66.62 65.97 64.51 63.77 61.95 60.01 61.18 61.76 62.60 62.02 62.76 62.76 63.52 64.19 63.07 62.45 61.56 61.37 60.99 60.55 59.95 59.36 58.69 57.29
44.78 43.00 42.60 42.09 39.74 33.13 39.47 39.04 39.72 42.78 45.71 48.50 50.82 51.95 52.79 53.29 54.69 56.78 62.50 63.19 63.06 64.45 65.50 66.08 65.65 64.81 64.75 63.98 63.45 61.87 61.22 61.65 60.19 61.28 61.55 61.15 61.94 62.51 63.04 63.49 61.68 61.17 61.14 61.14 61.11 60.90 60.03 59.23 58.57
40.89 36.89 30.60 29.59 31.01 31.01 40.59 39.15 41.52 45.22 48.92 50.40 50.18 51.13 52.66 54.06 56.59 60.71 61.12 61.53 62.56 63.82 64.81 64.72 64.25 62.77 63.59 64.68 62.51 63.75 61.17 61.42 61.37 60.84 60.62 61.33 61.21 61.15 61.57 61.35 60.75 60.91 61.89 62.22 61.69 60.81 60.34 60.29 58.97
36.57 37.47 31.62 24.92 28.32 32.66 40.98 35.43 40.67 48.32 50.76 51.92 52.32 51.60 55.56 59.06 60.01 60.27 60.70 61.32 62.78 63.78 64.03 63.66 63.05 62.71 63.34 62.08 62.79 63.02 62.30 61.45 62.20 61.41 60.96 60.61 60.15 61.14 60.89 62.00 62.14 62.52 63.55 63.64 62.52 61.55 61.06 61.70 60.65
36.62 33.69 40.84 35.39 37.45 33.23 36.81 41.13 45.49 47.90 48.52 51.08 51.07 52.76 57.18 58.59 59.48 59.96 60.19 61.56 62.62 62.88 62.24 63.03 62.70 62.37 62.61 61.86 62.85 62.68 62.33 62.15 62.16 61.74 61.59 61.08 61.19 61.04 62.40 62.17 62.13 62.68 62.55 63.04 62.07 61.26 61.70 60.76 61.54
40.26 40.98 33.62 35.71 27.76 27.05 35.60 37.76 39.31 44.87 47.57 49.30 50.77 52.56 57.00 58.35 59.12 59.76 60.61 61.46 62.22 62.56 62.90 62.79 62.50 61.85 61.98 62.28 62.59 62.58 62.72 62.33 62.28 61.32 60.88 61.17 61.04 61.84 61.95 62.19 62.61 61.95 62.76 62.48 62.29 61.23 62.00 59.90 59.79
37.60 35.69 36.31 36.15 35.81 30.97 29.75 35.54 46.04 47.53 48.79 48.87 50.63 56.68 57.07 57.55 58.59 59.50 60.84 61.64 62.10 62.82 62.79 62.24 61.69 61.56 60.96 62.08 61.98 62.47 61.11 62.33 61.35 61.56 62.54 60.69 60.12 63.09 61.48 62.22 62.45 62.47 62.02 61.60 61.69 61.61 61.85 60.15 59.33
40.45 37.52 37.64 32.44 32.84 36.67 34.92 36.70 49.23 52.10 50.40 50.88 55.73 57.43 57.60 58.70 59.11 60.45 60.83 61.46 61.45 61.73 61.64 61.11 61.01 60.55 61.08 62.40 62.50 63.65 62.23 61.49 61.56 61.05 62.65 60.31 59.75 60.44 61.07 62.24 62.90 62.66 61.43 60.69 62.46 61.19 61.68 60.02 59.81
MSLP
1010.92 1011.21 1011.29 1011.29 1011.74 1010.38 1008.96 1006.43 1005.81 1003.92 1002.10 1001.77 1001.11 1001.26 1001.74 1002.26 1002.88 1004.66 1004.23 1004.83 1005.84 1006.94 1007.70 1008.20 1008.58 1008.92 1009.35 1009.84 1010.32 1010.79 1011.19 1011.55 1011.84 1012.24 1012.68 1012.97 1013.24 1013.56 1013.90 1013.92 1014.19 1014.38 1014.54 1014.47 1014.55 1014.72 1014.80 1014.79 1014.73
1010.61 1011.13 1011.18 1011.03 1010.86 1009.80 1007.86 1005.62 1005.06 1003.69 1003.08 1002.41 1001.34 1001.27 1001.93 1003.06 1002.61 1003.63 1004.66 1004.95 1005.58 1006.57 1007.44 1007.99 1008.52 1008.93 1009.29 1009.68 1010.18 1010.70 1011.08 1011.48 1011.77 1012.13 1012.46 1012.78 1013.09 1013.43 1013.71 1013.84 1014.05 1014.31 1014.45 1014.43 1014.40 1014.55 1014.66 1014.64 1014.61
1010.77 1010.91 1011.16 1010.48 1009.67 1008.39 1006.84 1004.97 1004.29 1003.94 1003.21 1004.03 1002.15 1001.23 1001.72 1002.73 1002.98 1003.39 1003.96 1005.08 1005.59 1006.53 1007.45 1008.30 1008.77 1009.07 1009.33 1009.66 1010.07 1010.54 1011.00 1011.44 1011.74 1012.02 1012.33 1012.69 1013.03 1013.31 1013.49 1013.72 1013.99 1014.15 1014.24 1014.23 1014.23 1014.33 1014.40 1014.40 1014.42
1010.89 1010.84 1010.62 1009.70 1008.68 1006.68 1005.78 1004.78 1003.77 1004.40 1004.14 1006.37 1002.09 1001.97 1002.28 1002.28 1002.82 1003.42 1004.29 1004.80 1005.62 1006.59 1007.23 1008.16 1008.95 1009.40 1009.59 1009.81 1010.11 1010.45 1010.92 1011.29 1011.50 1011.84 1012.09 1012.42 1012.83 1013.02 1013.20 1013.46 1013.74 1013.97 1013.98 1013.93 1013.94 1013.99 1014.13 1014.18 1014.20
1010.95 1010.67 1010.29 1009.36 1007.74 1005.83 1004.40 1003.24 1003.14 1003.90 1003.96 1002.38 1002.12 1002.43 1002.53 1002.77 1002.76 1003.17 1003.72 1004.75 1005.05 1006.18 1006.39 1006.97 1007.69 1008.58 1009.16 1009.70 1010.12 1010.36 1010.73 1011.01 1011.22 1011.47 1011.73 1012.06 1012.47 1012.68 1012.80 1013.06 1013.32 1013.54 1013.66 1013.69 1013.67 1013.74 1013.90 1014.06 1014.01
1010.93 1010.03 1009.93 1008.91 1007.25 1005.06 1003.60 1002.32 1002.08 1002.48 1001.93 1001.60 1001.62 1002.03 1002.80 1002.67 1002.75 1003.03 1003.13 1003.58 1004.44 1004.98 1005.55 1006.07 1006.67 1007.31 1008.03 1008.78 1009.39 1009.96 1010.27 1010.76 1011.01 1011.14 1011.28 1011.57 1011.89 1012.20 1012.40 1012.60 1012.84 1013.03 1013.26 1013.34 1013.37 1013.45 1013.63 1013.81 1013.83
1010.73 1010.19 1009.41 1008.61 1006.86 1004.91 1002.96 1002.02 1001.54 1002.02 1001.55 1001.66 1001.62 1002.28 1003.06 1002.95 1002.49 1002.47 1002.50 1002.66 1002.97 1004.34 1005.24 1006.02 1006.29 1006.80 1007.14 1007.89 1008.56 1009.10 1009.75 1010.21 1010.68 1010.85 1010.87 1011.11 1011.36 1011.64 1011.86 1012.08 1012.33 1012.59 1012.87 1012.94 1013.00 1013.11 1013.39 1013.53 1013.55
1009.81 1009.98 1009.16 1008.35 1006.82 1004.84 1002.47 1002.45 1001.73 1001.96 1001.27 1001.34 1001.29 1002.02 1002.61 1002.70 1002.15 1002.24 1002.44 1002.69 1002.78 1003.89 1004.71 1005.34 1005.85 1006.34 1006.80 1007.34 1007.83 1008.30 1009.03 1009.64 1010.15 1010.48 1010.54 1010.67 1010.90 1011.20 1011.42 1011.57 1011.83 1012.23 1012.35 1012.45 1012.63 1012.82 1013.00 1013.11 1013.17
1009.23 1009.45 1008.79 1007.88 1006.44 1004.58 1002.67 1002.18 1001.45 1001.53 1001.31 1000.98 1001.34 1001.79 1001.78 1001.57 1001.56 1002.38 1002.53 1002.44 1002.59 1003.56 1004.16 1004.92 1005.43 1005.88 1006.27 1006.77 1007.43 1007.90 1008.26 1009.08 1009.78 1010.14 1010.20 1010.47 1010.69 1010.93 1011.04 1011.06 1011.29 1011.72 1011.80 1011.92 1012.21 1012.47 1012.65 1012.79 1012.83
1008.63 1007.98 1007.53 1006.57 1005.83 1004.63 1003.27 1002.60 1002.43 1001.76 1001.47 1001.33 1001.37 1001.29 1001.38 1001.42 1001.80 1001.90 1002.03 1002.38 1002.72 1002.90 1003.91 1004.54 1005.16 1005.38 1005.89 1006.09 1006.74 1007.35 1007.52 1008.25 1009.08 1009.66 1009.95 1010.13 1010.40 1010.59 1010.47 1010.55 1010.69 1011.05 1011.09 1011.45 1011.72 1012.03 1012.22 1012.51 1012.67
1007.55 1006.39 1006.66 1006.03 1005.33 1004.41 1003.50 1002.73 1002.30 1001.98 1001.48 1001.36 1001.43 1001.54 1001.66 1001.36 1001.60 1001.54 1001.52 1001.76 1002.14 1002.30 1002.76 1003.68 1004.22 1004.69 1005.16 1005.40 1006.09 1006.63 1007.04 1007.35 1008.27 1009.09 1009.55 1009.78 1010.01 1010.21 1010.13 1010.28 1010.27 1010.71 1010.95 1011.42 1011.58 1011.75 1011.89 1012.20 1012.35
1006.82 1005.91 1005.90 1005.50 1004.87 1004.03 1003.21 1002.65 1002.07 1001.65 1001.31 1001.17 1001.12 1001.27 1001.46 1001.48 1001.53 1001.57 1001.40 1001.45 1001.69 1001.69 1001.92 1002.39 1003.25 1003.84 1004.46 1004.73 1005.21 1005.77 1006.26 1006.81 1007.47 1008.18 1008.82 1009.35 1009.82 1009.99 1010.18 1010.26 1010.30 1010.58 1010.73 1011.16 1011.33 1011.49 1011.53 1011.81 1011.92
1005.57 1005.50 1005.12 1004.59 1004.21 1003.52 1003.15 1002.36 1001.82 1001.32 1001.08 1000.65 1000.62 1000.64 1000.76 1000.83 1000.92 1000.86 1000.80 1000.83 1000.82 1001.36 1001.39 1001.70 1002.20 1002.83 1003.56 1003.98 1004.56 1005.14 1005.50 1005.97 1006.58 1007.13 1007.80 1008.44 1009.16 1009.60 1009.78 1009.87 1009.86 1010.22 1010.44 1010.83 1011.25 1011.22 1011.19 1011.48 1011.55
1005.88 1005.34 1004.42 1004.15 1003.46 1003.17 1002.79 1001.86 1001.41 1000.97 1000.78 1000.43 1000.34 1000.37 1000.31 1000.31 1000.38 1000.24 1000.32 1000.35 1000.43 1000.51 1000.75 1000.79 1001.50 1001.92 1002.73 1003.24 1003.72 1004.07 1004.69 1005.18 1005.86 1006.40 1006.94 1007.78 1008.33 1009.01 1009.47 1009.73 1009.92 1010.05 1010.10 1010.38 1010.69 1010.92 1010.99 1011.17 1011.35
1006.08 1005.32 1004.26 1002.97 1002.82 1002.52 1002.77 1000.86 1000.09 1000.64 1000.40 1000.08 1000.03 999.97 1000.00 999.83 999.73 999.92 999.59 999.60 999.74 999.96 1000.02 1000.37 1000.72 1001.20 1001.87 1002.49 1003.09 1003.57 1004.04 1004.62 1005.23 1005.84 1006.36 1007.17 1007.76 1008.53 1009.11 1009.48 1009.59 1009.72 1009.70 1009.96 1010.33 1010.62 1010.77 1010.88 1011.01
1006.03 1005.64 1003.77 1002.76 1002.65 1001.68 1003.09 997.93 1000.14 1000.29 999.92 999.91 999.74 999.43 999.26 998.97 998.89 998.94 999.16 999.22 998.97 999.10 999.52 999.68 999.83 1000.61 1001.35 1001.90 1002.58 1003.20 1003.75 1004.12 1004.73 1005.35 1005.93 1006.65 1007.35 1007.88 1008.65 1009.08 1009.35 1009.41 1009.62 1009.94 1010.28 1010.48 1010.65 1010.80 1010.95
1005.39 1004.55 1003.40 1002.47 1001.98 1001.97 1002.01 999.37 999.47 999.38 999.49 999.21 998.82 998.59 998.43 998.23 998.17 998.34 998.49 998.53 998.39 998.43 998.66 999.16 999.63 1000.24 1000.81 1001.54 1002.21 1002.77 1003.26 1003.82 1004.49 1005.13 1005.94 1006.55 1007.10 1007.45 1008.24 1008.75 1009.06 1009.08 1009.57 1009.88 1010.14 1010.27 1010.42 1010.72 1010.79
1004.38 1003.92 1002.12 1001.07 1002.01 1001.51 1001.23 1000.24 998.97 998.58 998.94 998.47 997.91 997.73 997.65 997.64 997.65 997.56 997.52 997.53 997.55 997.61 997.93 998.65 999.28 999.99 1000.75 1001.39 1002.17 1002.95 1003.44 1003.98 1004.55 1005.34 1006.05 1006.39 1006.66 1007.16 1007.89 1008.38 1008.72 1009.01 1009.28 1009.54 1009.79 1009.93 1010.03 1010.30 1010.43
1003.89 1002.92 1001.58 1001.62 1001.88 1001.57 1000.40 1000.05 998.77 997.95 998.06 997.86 997.56 997.47 997.22 997.13 996.78 996.60 996.68 997.07 997.54 997.72 997.98 998.59 999.20 1000.06 1000.60 1001.50 1002.30 1003.10 1003.77 1004.24 1004.61 1005.18 1005.89 1006.19 1006.27 1006.82 1007.58 1008.01 1008.35 1008.60 1008.83 1009.02 1009.26 1009.45 1009.73 1009.87 1010.07
1004.10 1003.31 1001.96 1001.58 1001.24 1000.84 999.88 999.72 998.13 997.38 997.00 996.86 996.82 996.62 996.66 996.48 996.32 996.36 996.71 996.93 997.68 998.13 998.32 998.65 999.21 999.92 1000.52 1001.16 1002.05 1002.84 1003.58 1004.14 1004.41 1005.06 1005.55 1005.81 1006.29 1006.79 1007.21 1007.58 1007.93 1008.16 1008.54 1008.72 1008.70 1009.03 1009.36 1009.59 1009.90
1003.13 1002.79 1002.45 1001.72 1002.03 1000.63 1000.18 999.66 998.02 996.98 996.34 996.03 995.81 995.77 995.77 995.76 996.00 996.06 996.24 996.69 997.44 998.05 998.60 999.00 999.58 1000.14 1000.64 1001.22 1002.14 1003.05 1003.70 1004.22 1004.79 1005.26 1005.52 1005.71 1006.07 1006.56 1006.98 1007.31 1007.67 1008.02 1008.32 1008.48 1008.67 1008.58 1008.97 1009.46 1009.62
1002.28 1002.41 1002.41 1002.29 1002.42 1000.79 1001.23 999.44 997.60 996.86 996.22 995.67 995.53 995.42 995.10 994.91 995.11 995.22 995.56 996.86 997.47 998.09 998.53 999.12 999.87 1000.42 1000.87 1001.40 1002.28 1003.05 1003.91 1004.64 1004.82 1005.18 1005.32 1005.64 1006.06 1006.42 1006.66 1007.20 1007.57 1007.76 1007.93 1008.21 1008.30 1008.34 1008.67 1009.08 1009.48
1001.03 1001.92 1002.01 1001.88 1001.87 1001.59 1000.78 1000.11 994.09 996.23 995.64 995.36 995.04 994.70 994.45 994.24 994.44 994.65 995.03 996.44 997.52 998.11 998.67 999.49 1000.14 1000.59 1001.15 1001.75 1002.40 1003.13 1003.88 1004.24 1004.62 1005.14 1005.57 1005.94 1006.23 1006.41 1006.86 1007.17 1007.33 1007.51 1007.72 1007.86 1008.03 1008.23 1008.51 1008.72 1009.02
1002.00 1001.87 1001.94 1001.94 1001.86 1001.32 999.38 999.65 993.03 995.76 995.44 994.88 994.23 993.95 993.72 993.71 993.74 994.11 995.51 996.47 997.67 998.36 999.13 999.91 1000.38 1000.96 1001.47 1002.05 1002.70 1003.34 1003.97 1004.41 1004.96 1005.50 1006.02 1006.41 1006.49 1006.59 1006.77 1006.90 1007.07 1007.29 1007.46 1007.59 1007.72 1007.86 1008.12 1008.30 1008.53
1001.52 1001.98 1002.13 1001.92 1001.46 999.12 999.37 998.35 995.04 994.18 993.95 993.40 993.59 993.45 993.15 993.10 993.69 994.88 996.00 997.10 998.05 998.77 999.44 1000.09 1000.72 1001.44 1001.79 1002.41 1003.03 1003.54 1004.14 1004.56 1004.99 1005.47 1005.85 1006.29 1006.57 1006.82 1006.74 1006.85 1006.96 1007.13 1007.28 1007.38 1007.46 1007.61 1007.74 1007.86 1008.19
1001.20 1001.51 1001.57 1000.59 1000.28 999.05 999.23 996.11 993.89 993.10 992.98 992.66 992.71 992.91 993.02 993.64 994.25 995.36 996.60 997.33 998.31 999.03 999.66 1000.31 1001.07 1001.73 1002.16 1002.78 1003.37 1003.77 1004.14 1004.68 1005.14 1005.50 1005.88 1006.22 1006.49 1006.55 1006.60 1006.73 1006.77 1006.88 1006.92 1006.93 1007.08 1007.32 1007.39 1007.35 1007.58
1000.83 1000.71 1000.00 1000.88 1000.23 999.47 997.57 995.67 993.46 992.39 992.34 992.20 992.40 992.43 993.48 994.28 995.10 995.86 997.06 997.86 998.64 999.34 1000.01 1000.59 1001.24 1001.88 1002.47 1003.07 1003.64 1004.05 1004.43 1004.80 1005.28 1005.60 1005.84 1006.15 1006.23 1006.44 1006.59 1006.62 1006.64 1006.72 1006.79 1006.82 1006.89 1007.09 1007.13 1007.17 1007.28
1000.74 1000.03 1000.48 1000.15 1000.30 999.23 996.98 995.28 993.53 991.47 990.87 991.17 992.13 992.99 993.70 994.57 995.54 996.36 997.25 998.10 998.94 999.66 1000.26 1000.82 1001.37 1002.07 1002.70 1003.32 1003.80 1004.22 1004.57 1004.93 1005.31 1005.60 1005.95 1006.10 1006.28 1006.39 1006.57 1006.54 1006.61 1006.77 1006.82 1006.88 1006.90 1006.96 1007.17 1007.41 1007.66
1000.98 1000.10 1000.32 1000.06 999.64 998.74 997.41 994.84 991.73 990.85 989.79 990.36 991.45 992.57 993.44 994.47 995.52 996.42 997.32 998.17 999.04 999.83 1000.38 1001.01 1001.59 1002.24 1002.94 1003.42 1003.88 1004.20 1004.49 1004.99 1005.27 1005.56 1005.78 1006.03 1006.11 1006.25 1006.45 1006.43 1006.61 1006.77 1006.90 1007.00 1006.99 1007.06 1007.10 1007.43 1007.66
1001.34 1000.92 1000.22 1000.10 998.94 998.10 996.74 993.98 990.54 989.30 989.17 989.84 991.15 992.23 993.22 994.07 995.27 996.30 997.30 998.14 999.16 999.89 1000.47 1001.17 1001.71 1002.41 1002.92 1003.43 1003.87 1004.30 1004.79 1005.08 1005.45 1005.71 1005.85 1005.94 1006.02 1006.14 1006.25 1006.43 1006.55 1006.81 1007.09 1006.96 1006.95 1007.15 1007.20 1007.50 1007.71
Wind_Speed
3 3 2 2 3 2 5 10 7 14 9 4 5 6 1 4 6 5 5 11 18 17 15 17 20 20 20 19 18 17 16 16 15 14 13 13 11 10 9 8 7 6 5 4 3 2 3 3 3
3 5 1 3 2 2 6 10 4 4 3 16 6 1 6 8 13 7 8 15 18 17 14 14 20 20 20 19 19 17 17 16 16 15 14 13 11 10 9 8 7 6 6 5 5 5 5 5 5
2 5 1 4 4 6 6 5 3 4 13 26 8 3 3 5 4 6 11 16 17 15 13 11 18 18 19 19 19 18 17 16 16 15 14 13 12 10 9 8 7 7 8 7 7 7 7 7 8
3 1 4 1 10 13 13 13 6 4 11 31 11 4 5 1 5 7 17 18 16 15 15 15 16 15 17 17 18 18 17 16 16 16 15 14 13 12 11 9 8 9 8 8 10 10 10 9 9
3 3 2 5 9 12 15 14 14 12 11 25 5 6 9 5 12 11 11 14 18 15 17 20 25 20 18 18 17 18 18 17 17 17 17 15 14 12 11 11 10 10 10 9 10 10 9 9 9
3 3 2 6 10 17 16 13 3 7 3 8 5 5 3 8 10 9 10 10 17 19 18 19 27 26 23 21 20 19 19 18 18 18 17 16 15 14 12 12 11 11 11 10 8 7 8 7 7
3 3 6 9 13 18 15 7 7 3 5 6 4 8 5 6 8 10 10 10 10 17 15 15 18 23 27 25 23 21 20 20 19 18 17 17 16 14 13 12 11 11 11 10 9 9 10 10 9
3 2 5 7 12 18 17 7 0 2 7 3 5 2 2 7 10 9 8 7 8 16 15 16 16 17 17 17 24 23 21 20 19 18 17 17 16 14 13 13 11 13 12 12 12 11 11 11 10
6 3 6 12 12 16 18 12 10 3 4 2 2 1 5 8 4 5 4 2 3 10 15 14 16 16 16 15 16 21 23 20 19 18 18 13 5 7 11 11 14 15 15 14 14 12 12 12 12
13 8 15 13 14 17 13 10 17 16 8 4 5 3 6 15 1 2 0 2 3 6 15 14 14 16 15 13 15 14 14 11 10 10 9 6 7 6 9 9 17 17 17 16 14 14 13 11 4
15 22 15 16 18 19 17 16 15 16 14 7 4 10 17 10 8 7 4 3 6 7 6 17 16 15 17 14 11 8 8 8 8 9 7 7 6 5 5 3 4 6 11 4 7 7 5 5 4
19 21 19 18 21 22 22 19 20 18 13 12 10 12 8 9 8 7 6 7 7 9 6 15 19 16 16 11 11 11 9 9 8 10 10 7 5 5 4 3 5 5 4 6 5 4 5 7 7
25 20 19 20 21 24 23 24 22 22 19 19 14 15 14 10 10 8 10 9 10 7 9 9 16 17 16 13 10 10 10 10 11 10 11 8 6 5 4 4 3 4 4 5 5 5 6 6 6
16 17 22 19 23 22 24 24 21 20 13 14 11 12 11 10 10 8 8 10 9 8 8 6 15 17 16 14 14 11 10 11 10 9 10 11 7 5 4 4 4 4 5 4 4 4 4 4 4
18 20 19 23 21 23 18 28 32 19 15 18 16 18 18 10 9 11 10 10 9 8 9 9 12 15 17 15 11 10 10 10 10 8 11 11 8 7 5 4 2 3 3 3 2 2 2 3 3
18 13 22 20 21 23 16 42 20 15 19 18 23 23 21 12 11 9 8 9 10 8 9 9 10 14 12 12 7 8 8 7 8 7 8 11 8 8 5 3 3 3 3 3 2 3 3 3 4
14 20 23 25 22 17 13 30 21 19 19 25 26 24 22 20 10 9 9 10 11 10 9 10 9 14 14 8 8 6 7 5 5 6 6 9 8 7 6 4 4 4 4 3 3 4 4 3 4
12 22 24 29 13 17 23 29 31 30 22 24 22 17 12 13 12 10 11 11 10 9 7 7 8 10 9 7 6 4 4 5 5 4 5 8 8 8 6 5 5 4 4 4 4 5 4 3 4
12 22 22 16 19 18 23 22 27 21 11 14 17 11 14 11 11 11 8 8 4 5 8 9 11 10 10 8 7 4 5 4 4 5 6 8 7 7 6 4 5 5 5 5 5 4 6 4 3
21 23 23 14 13 15 20 18 25 22 19 21 21 18 11 9 8 7 4 6 8 8 7 8 9 12 9 9 4 4 5 3 4 3 6 7 8 7 6 5 5 5 3 5 5 4 2 3 4
25 26 18 21 12 22 15 16 21 19 11 10 10 9 10 11 10 9 9 8 9 9 9 8 9 9 7 8 6 5 4 4 3 1 2 4 7 6 6 6 3 3 3 4 3 4 5 3 2
24 17 23 21 13 19 7 20 25 16 17 16 16 13 12 10 8 9 9 10 10 8 9 9 9 9 8 9 7 8 5 4 4 4 3 4 6 5 6 4 3 4 3 3 3 3 3 4 4
25 14 19 14 17 16 17 11 23 11 12 7 10 11 11 11 12 12 11 13 11 10 9 8 9 9 9 8 8 6 5 3 3 4 8 7 4 6 5 5 5 3 3 3 3 3 4 3 3
17 17 19 15 12 11 20 16 28 16 14 10 10 10 10 11 13 5 14 16 12 10 10 9 9 7 8 8 8 9 8 4 5 5 5 4 3 1 1 2 3 3 3 4 4 4 5 5 4
15 11 7 10 11 19 13 14 21 6 14 18 14 12 11 9 9 17 18 15 13 13 12 9 9 8 8 9 8 8 8 8 7 5 4 5 3 1 3 1 3 3 4 4 4 3 4 4 3
13 14 10 15 13 16 12 11 13 18 17 22 17 11 5 14 15 16 14 14 14 14 12 10 9 8 8 8 8 7 7 5 4 5 4 4 3 4 3 3 3 3 4 5 4 2 3 4 3
20 18 17 17 11 7 7 15 22 27 22 15 7 6 14 14 15 16 12 13 13 13 10 11 10 8 8 8 7 7 6 7 6 6 4 3 4 3 4 4 2 1 1 1 4 3 3 1 3
11 11 6 12 14 15 6 10 13 10 20 17 9 10 14 14 15 15 13 14 11 11 10 10 9 9 7 8 7 6 7 6 6 6 5 5 4 5 4 4 3 2 4 2 2 1 1 6 3
10 14 11 6 10 13 5 10 15 16 14 14 10 18 18 16 17 14 14 13 12 10 11 9 9 9 8 7 6 7 6 7 6 6 5 5 3 5 5 5 4 4 3 2 1 2 5 6 4
15 20 16 10 14 10 5 11 2 4 9 12 19 19 16 18 16 16 15 14 12 11 9 8 8 8 8 7 7 6 7 7 6 6 6 4 3 2 5 5 5 4 4 2 3 2 2 5 5
Wind_Direction
132 171 195 319 31 181 249 259 247 26 37 14 62 64 341 41 100 163 191 122 126 143 159 164 166 159 156 156 156 157 155 154 154 152 154 151 150 151 155 151 158 168 177 174 186 226 258 277 269
186 203 283 264 176 263 269 253 294 117 179 300 322 146 81 82 82 92 100 139 140 147 158 166 169 163 160 161 160 162 162 162 160 159 159 157 159 163 166 166 175 194 207 210 213 232 252 260 263
359 282 16 175 214 202 236 298 46 48 3 330 327 64 53 115 86 120 133 136 132 141 151 165 169 167 165 165 164 166 168 168 165 165 164 166 171 176 174 180 198 212 222 229 236 241 247 253 253
185 291 285 246 254 263 251 270 53 56 64 272 284 53 77 28 107 126 130 135 133 147 153 158 172 174 172 171 171 169 174 174 171 172 172 175 182 184 184 193 209 228 235 247 254 251 248 248 252
262 268 228 233 257 267 272 268 179 175 192 216 141 249 134 78 116 120 121 154 144 159 164 164 170 176 177 179 180 177 179 182 180 180 179 182 188 190 193 203 216 226 237 248 263 274 281 275 265
276 179 278 240 259 260 268 276 140 187 303 331 113 166 129 144 112 150 150 165 166 165 171 170 172 174 178 181 182 185 183 188 190 187 183 188 190 193 195 206 220 233 237 247 251 263 268 272 259
235 331 236 261 267 280 275 328 62 13 348 31 54 102 163 136 166 164 173 179 195 168 159 168 175 178 180 182 184 183 188 191 195 195 190 192 192 195 197 205 220 229 222 232 245 247 253 259 257
203 195 288 271 272 279 284 338 177 188 251 138 98 24 121 222 188 183 183 202 216 150 162 173 177 181 181 183 185 182 188 194 196 199 197 196 194 198 199 207 213 214 219 226 234 244 247 250 249
223 228 254 252 252 264 300 313 337 288 333 339 105 20 308 288 267 108 191 355 314 147 170 173 175 179 182 181 188 185 186 195 199 201 201 198 188 205 215 211 205 213 219 214 223 232 246 247 247
222 223 227 243 259 274 289 314 296 308 307 329 300 323 324 302 128 121 316 271 256 286 176 174 178 179 177 180 183 187 183 187 193 200 200 187 195 210 218 210 206 208 216 209 214 226 237 246 225
229 239 242 254 259 273 283 293 296 296 295 268 261 173 250 252 280 208 211 232 244 249 160 181 180 180 177 181 178 180 187 176 183 189 191 192 203 214 217 194 190 196 202 198 215 228 213 210 224
241 236 237 248 256 269 274 283 284 285 275 297 295 299 247 274 269 230 220 241 248 251 240 173 183 179 184 177 179 177 180 181 179 192 192 184 202 201 203 192 191 185 185 199 205 207 190 206 225
235 243 243 246 248 254 264 265 265 268 281 282 277 284 283 261 245 228 219 226 236 232 226 164 172 178 184 181 177 176 182 178 180 186 193 188 187 185 205 229 207 183 172 181 210 209 196 201 222
266 249 245 243 247 253 256 262 264 258 265 280 278 278 277 265 254 255 231 237 237 219 216 168 172 179 178 185 180 177 178 173 180 184 187 180 172 172 194 216 216 189 169 174 195 205 189 184 204
266 272 278 254 244 249 263 270 258 273 271 281 285 289 277 262 260 243 238 228 208 204 213 193 174 174 181 183 173 173 178 170 180 180 172 168 161 171 179 202 214 214 191 169 154 193 188 207 238
264 275 258 257 258 254 253 262 271 269 273 278 283 273 272 251 245 261 269 239 197 193 204 193 176 177 172 179 163 159 169 160 167 148 159 162 159 160 178 199 220 211 179 169 194 217 225 220 220
230 238 250 254 240 247 237 269 269 264 258 256 256 259 262 253 244 255 247 215 219 209 206 189 167 171 177 155 153 148 149 133 141 128 131 158 167 168 167 190 211 188 164 181 203 226 196 209 236
215 222 234 246 242 236 238 250 263 263 258 254 258 252 243 238 225 232 249 232 229 231 215 177 157 159 152 137 116 101 111 120 113 128 157 162 162 169 175 195 215 181 170 206 221 209 217 199 209
261 236 245 246 236 256 253 261 269 265 255 265 271 264 260 226 224 224 236 221 234 123 130 162 142 152 141 148 145 134 141 137 120 145 175 169 167 173 186 184 197 176 195 212 211 202 209 228 195
246 265 260 271 249 251 256 254 255 253 256 249 250 252 247 237 246 261 260 227 161 147 134 126 129 149 146 151 127 128 133 137 146 155 180 164 163 170 177 182 182 204 227 247 242 218 207 218 174
229 240 254 258 288 284 299 292 278 281 272 257 247 243 232 212 215 221 232 181 145 136 128 123 122 131 118 124 115 98 90 64 72 133 176 174 156 145 141 173 186 199 199 250 244 198 176 201 235
242 233 239 254 251 257 246 271 264 269 266 260 265 257 248 240 234 223 229 144 150 141 130 119 122 123 120 131 120 139 136 138 184 161 150 152 150 164 145 142 180 211 211 218 241 197 185 161 217
251 236 251 241 240 257 251 263 267 209 237 270 266 249 244 236 217 221 223 141 137 128 118 118 123 112 118 123 125 123 123 140 133 119 108 101 103 115 155 176 186 188 181 206 200 207 192 185 169
262 242 251 260 257 259 236 232 266 241 247 243 256 260 250 249 226 134 110 118 120 114 108 115 112 109 115 118 122 124 109 112 103 114 115 132 134 125 34 211 183 182 187 215 218 211 200 198 195
257 224 245 238 231 239 214 235 238 260 222 239 244 252 260 250 120 124 129 131 132 124 119 119 117 119 113 117 119 101 122 113 113 116 124 125 124 162 236 160 136 183 207 219 203 187 194 205 186
252 229 215 214 217 253 263 242 239 241 243 242 251 238 123 106 116 121 127 128 128 126 126 125 124 121 111 116 115 119 117 114 108 107 118 142 155 164 159 165 161 206 218 220 186 173 217 216 226
252 250 229 253 280 245 243 236 265 258 256 251 217 165 128 123 125 123 123 122 126 129 131 128 129 122 120 127 124 123 101 101 106 102 122 129 133 150 161 166 158 48 15 122 160 186 218 193 94
256 251 241 219 232 255 243 242 254 275 248 227 191 136 129 124 122 127 124 126 130 133 133 125 127 131 135 137 133 137 128 131 134 119 128 131 163 149 169 157 130 105 64 69 142 206 8 77 91
292 242 243 278 207 234 253 268 252 244 212 191 156 142 135 131 132 131 129 131 134 132 136 135 133 133 139 142 147 146 134 129 131 122 144 143 125 172 164 161 152 123 122 86 66 118 102 104 83
272 282 238 222 228 239 213 265 248 107 145 134 144 141 135 133 135 132 134 135 135 138 133 134 135 136 151 147 145 137 120 119 121 123 141 159 185 196 188 164 130 106 94 53 93 69 119 132 116